#timestamp,LO_Frequency,Hit,StdDev 
1502542815.9,286046998.5,N,1.2
1502542835.7,286046998.4,N,1.3
1502542855.5,286046998.3,N,1.3
1502542875.4,286046999.1,N,1.4
1502542895.2,286046999.2,N,1.3
1502542915.1,286046998.8,N,1.3
1502542916.0,286046998.8,N,1.3
1502542935.8,286046998.8,N,1.3
1502542955.6,286046996.5,N,1.5
1502542975.5,286046998.7,N,1.5
1502542995.3,286046999.6,N,1.4
1502543015.2,286046996.8,N,1.5
1502543035.9,286046997.5,N,1.6
1502543055.7,286046997.1,N,1.6
1502543075.6,286046997.7,N,1.6
1502543095.4,286046997.9,N,1.6
1502543115.3,286046995.5,N,1.7
1502543135.1,286046995.4,N,1.8
1502543136.0,286046995.4,N,1.8
1502543155.8,286046995.5,N,1.8
1502543175.7,286046995.2,N,1.8
1502543195.5,286046994.9,N,1.8
1502543215.3,286046997.7,N,1.7
1502543235.2,286046995.1,N,1.7
1502543255.0,286046995.6,N,1.7
1502543255.9,286046995.6,N,1.7
1502543275.8,286046997.9,N,1.6
1502543295.6,286046995.6,N,1.5
1502543315.4,286046995.2,Y,0.0
1502543335.3,286046999.0,P,0.9
1502543355.1,286046998.2,N,0.7
1502543375.9,286046998.7,N,0.7
1502543395.7,286046999.3,N,0.7
1502543415.5,286046998.5,N,0.6
1502543435.4,286046999.0,N,0.6
1502543455.2,286046999.3,N,0.6
1502543475.1,286046999.1,N,0.6
1502543476.0,286046999.1,N,0.6
1502543495.8,286046999.2,N,0.6
1502543515.6,286046999.0,N,0.6
1502543535.5,286046998.5,N,0.5
1502543555.3,286046999.0,N,0.5
1502543575.2,286046998.3,Y,0.0
1502543595.9,286046999.9,P,0.6
1502543615.7,286047000.1,N,0.6
1502543635.6,286046999.9,N,0.5
1502543655.4,286047002.1,Y,0.0
1502543675.3,286046999.7,P,0.0
1502543695.1,286047002.3,P,1.2
1502543696.0,286047002.3,N,1.3
1502543715.8,286047002.2,N,1.3
1502543735.7,286046999.8,N,1.3
1502543755.5,286047002.5,N,1.3
1502543775.3,286047001.6,N,1.2
1502543795.2,286047004.4,Y,0.0
1502543815.0,286046999.8,P,0.7
1502543815.9,286046999.8,N,0.7
1502543835.8,286047000.3,N,0.6
1502543855.6,286047000.3,N,0.5
1502543875.4,286046999.9,N,0.5
1502543895.3,286047002.8,Y,0.0
1502543915.1,286047002.6,P,1.2
1502543935.9,286047002.6,N,1.1
1502543955.7,286047002.5,N,1.0
1502543975.5,286047001.4,N,0.9
1502543995.4,286043059.3,Y,0.0
1502544015.2,286047000.3,P,0.8
1502544035.1,286047001.2,N,0.6
1502544036.0,286047001.2,N,0.6
1502544055.8,286047001.0,N,0.5
1502544075.6,286047000.8,N,0.5
1502544095.5,286047000.6,N,0.5
1502544115.3,286047000.5,N,0.5
1502544135.2,286046999.9,N,0.5
1502544155.9,286047000.5,N,0.5
1502544175.7,286047000.4,N,0.5
1502544195.6,286046999.9,N,0.5
1502544215.4,286047000.1,N,0.5
1502544235.3,286047002.0,Y,0.0
1502544255.1,286046999.7,P,0.5
1502544256.0,286046999.7,N,0.4
1502544275.8,286046999.7,N,0.4
1502544295.7,286047000.6,N,0.4
1502544315.5,286047000.2,N,0.4
1502544335.4,286047002.8,Y,0.0
1502544355.2,286047002.4,P,1.2
1502544375.0,286046999.7,N,1.2
1502544375.9,286046999.7,N,1.1
1502544395.8,286046999.9,N,1.0
1502544415.6,286046999.8,N,1.0
1502544435.5,286047002.6,N,1.2
1502544455.3,286046999.8,N,1.2
1502544475.1,286047002.5,N,1.3
1502544495.9,286047002.2,N,1.3
1502544515.7,286046999.8,N,1.3
1502544535.5,286047002.8,N,1.3
1502544555.4,286046999.8,N,1.3
1502544575.2,286047000.1,N,1.3
1502544595.1,286047001.2,N,1.2
1502544596.0,286047001.2,N,1.2
1502544615.8,286047000.9,N,1.2
1502544635.6,286046998.3,N,1.3
1502544655.5,286046998.1,N,1.4
1502544675.3,286046998.1,N,1.4
1502544695.2,286047001.1,N,1.4
1502544715.9,286047000.8,N,1.4
1502544735.7,286047001.0,N,1.4
1502544755.6,286047000.1,N,1.3
1502544775.4,286046998.5,N,1.4
1502544795.3,286047000.9,N,1.3
1502544815.1,286047001.0,N,1.3
1502544816.0,286047001.0,N,1.3
1502544835.8,286046999.8,N,1.3
1502544855.7,286046998.1,N,1.3
1502544875.5,286047002.8,N,1.4
1502544895.4,286047000.3,N,1.3
1502544915.2,286047002.6,N,1.4
1502544935.0,286047000.3,N,1.4
1502544935.9,286047000.3,N,1.4
1502544955.8,286046999.8,N,1.4
1502544975.6,286046999.8,N,1.3
1502544995.5,286047001.6,N,1.3
1502545015.3,286047001.5,N,1.3
1502545035.1,286047002.6,N,1.3
1502545055.9,286047002.5,N,1.4
1502545075.7,286047002.6,N,1.4
1502545095.5,286047002.0,N,1.4
1502545115.4,286047002.5,N,1.4
1502545135.2,286047002.1,N,1.4
1502545155.1,286047004.3,N,1.6
1502545156.0,286047004.3,N,1.7
1502545175.8,286047004.3,N,1.7
1502545195.6,286047004.0,N,1.7
1502545215.5,286047001.4,N,1.6
1502545235.3,286047002.1,N,1.6
1502545255.2,286047001.9,N,1.6
1502545275.0,286047001.8,N,1.6
1502545275.9,286047001.8,N,1.6
1502545295.8,286047003.5,N,1.5
1502545315.6,286047003.4,N,1.5
1502545335.4,286047003.2,N,1.5
1502545355.3,286047003.4,N,1.5
1502545375.1,286047007.5,Y,0.0
1502545395.9,286047003.8,P,0.9
1502545415.7,286047003.5,P,0.8
1502545435.5,286047003.9,P,0.8
1502545455.4,286047001.9,N,0.9
1502545475.2,286047004.0,Y,0.0
1502545495.1,286046998.6,P,2.2
1502545496.0,286046998.6,N,2.1
1502545515.8,286046998.8,N,1.9
1502545535.6,286046998.6,N,1.8
1502545555.5,286046999.2,N,1.6
1502545575.3,286046998.3,N,1.5
1502545595.1,286047001.1,N,1.6
1502545615.9,286046998.4,N,1.5
1502545635.7,286046998.4,N,1.5
1502545655.6,286047000.0,N,1.4
1502545675.4,286047011.9,Y,0.0
1502545695.2,286047002.0,P,1.3
1502545715.1,286047000.2,N,1.1
1502545716.0,286047000.2,N,1.0
1502545735.8,286047005.4,Y,0.0
1502545755.7,286047006.8,P,3.2
1502545775.5,286047006.5,N,2.9
1502545795.3,286047007.8,N,2.9
1502545815.2,286047007.8,N,2.8
1502545865.1,286047010.3,E,nan
1502545875.9,286047003.3,N,0.0
1502545895.7,286046998.9,P,2.2
1502545915.5,286046998.8,N,2.1
1502545935.4,286046999.5,N,1.9
1502545955.2,286046998.3,N,1.8
1502545975.1,286046998.8,N,1.7
1502545976.0,286046998.8,N,1.6
1502545995.8,286046999.6,N,1.5
1502546015.6,286046994.9,Y,0.0
1502546035.5,286046997.8,P,0.9
1502546055.3,286046996.8,P,1.1
1502546075.2,286046997.8,N,1.0
1502546095.0,286046995.0,Y,0.0
1502546125.9,286046995.7,E,nan
1502546135.9,286046998.0,N,0.0
1502546155.7,286046998.6,P,0.3
1502546175.5,286046999.2,N,0.5
1502546195.4,286046997.1,Y,0.0
1502546215.2,286046999.6,P,0.5
1502546235.1,286046995.4,P,1.8
1502546236.0,286046995.4,N,1.9
1502546255.8,286046995.3,N,1.9
1502546275.6,286046995.6,N,1.8
1502546295.5,286046994.8,N,1.8
1502546315.3,286046991.8,Y,0.0
1502546335.2,286046998.0,P,0.8
1502546355.0,286046997.5,P,0.7
1502546355.9,286046997.5,P,0.6
1502546375.8,286046994.9,Y,0.0
1502546395.6,286046997.2,P,0.1
